SCP
0 0 0 0 0 0 -0 0 -0 -0 -0 -0 0 0 0 0 0 0 0 0 0 0 0 0 0 0 0 0 0 0 0 0
0 0 0 0 0 0 -0 -0 0 0 0 0 0 0 0 0 0 0 -0 -0 -0 0 0 0 0 0 0 0 0 0 0 0
-0 -0 -0 -0 -0 -0 -0 -0 -0 -0 0 0 0 -0 -0 0 0 -0 -0 -0 -0 -0 0 0 0 0 0 0 0 0 0 0
-0 -0 -0 -0 -0 -0 -0 -0 -0 -0 0 0 0 0 0 -0 -0 -0 -0 -0 -0 -0 -0 0 0 0 0 0 0 0 0 0
-0 -0 -0 -0 -0 -0 -0 -0 -0 -0 -0 -0 -0 0 0 0 -0 -0 -0 -0 -0 -0 0 0 0 0 0 0 0 0 0 0
-0 -0 -0 -0 -0 -0 -0 -0 -0 -0 -0 -0 -0 -0 -0 -0 0 -0 0 -0 -0 -0 0 0 -0 0 0 0 0 0 0 0
-0 -0 -0 -0 -0 -0 -0 -0 -0 -0 -0 -0 -0 -0 -0 -0 -0 -0 0 0 0 0 -0 0 -0 0 0 0 0 0 0 0
-0 -0 -0 -0 -0 -0 -0 -0 -0 -0 -0 -0 -0 -0 -0 -0 -0 -0 -0 0 0 0 0 0 0 0 0 0 0 0 0 0
-0 -0 -0 -0 -0 -0 -0 -0 -0 -0 -0 -0 -0 -0 -0 -0 -0 -0 0 0 0 0 0 0 0 0 0 0 0 0 0 0
0 0 -0 -0 -0 -0 -0 -0 -0 -0 -0 -0 -0 -0 -0 -0 -0 -0 0 -0 0 0 0 0 0 0 0 0 0 0 0 0
0 0 -0 -0 -0 -0 -0 -0 -0 -0 -0 -0 -0 -0 -0 -0 -0 -0 -0 0 -0 0 0 0 0 0 0 0 0 0 0 0
0 0 0 0 0 -0 -0 -0 -0 -0 -0 -0 -0 -0 -0 -0 -0 -0 -0 0 0 0 0 0 0 0 0 0 0 0 0 0
0 0 0 0 0 0 -0 0 0 0 0 -0 -0 -0 -0 0 0 0 0 0 0 0 0 0 0 0 0 0 0 0 0 0
0 0 0 0 0 0 0 0 0 0 0 0 0 0 0 0 0 0 0 0 0 0 0 0 0 0 0 0 0 0 0 0
0 0 0 0 0 0 0 0 0 0 0 0 0 0 -0 0 0 0 0 0 0 0 0 0 0 0 0 0 0 0 0 0
0 0 0 0 0 0 0 0 0 0 0 0 0 0 0 0 0 0 0 0 0 0 0 0 0 0 0 0 0 0 0 0
0 0 0 0 0 0 0 0 0 0 0 0 0 0 0 0 0 0 0 0 0 0 0 0 0 0 0 0 0 0 0 0
0 0 0 0 0 0 0 0 0 0 0 0 0 0 0 0 0 0 0 0 0 0 0 0 0 0 0 0 0 0 0 0
0 0 0 0 0 0 0 0 0 0 0 0 0 0 0 0 0 0 0 0 0 0 0 0 0 0 0 0 0 0 0 0
Wind_Speed_500mb
23 20 21 30 29 34 41 35 36 34 54 69 70 73 88 80 73 73 66 67 73 59 49 51 46 38 40 37 31 31 28 28
26 23 22 30 30 36 44 47 47 46 53 75 72 68 95 97 89 88 58 70 69 64 49 56 49 38 38 41 32 33 30 32
33 29 27 33 34 39 42 50 54 57 60 68 71 75 92 97 94 96 63 65 66 66 52 57 56 39 43 45 38 34 28 37
41 38 34 33 37 41 46 55 58 59 66 78 77 73 88 88 108 83 73 64 64 60 67 54 56 51 51 48 40 34 31 33
45 44 40 38 39 41 45 56 62 61 62 79 84 89 86 88 97 96 65 61 68 61 65 63 60 55 54 42 43 41 38 36
52 51 44 39 39 43 46 54 59 63 75 81 76 84 89 85 91 95 72 70 73 77 70 67 62 55 53 49 50 49 44 45
49 45 43 42 41 43 46 51 60 68 78 82 80 88 89 88 95 98 86 77 77 83 76 71 64 59 61 61 56 54 54 52
49 54 54 50 51 50 50 54 58 68 77 83 88 85 97 88 94 102 99 92 85 83 78 74 73 64 63 62 59 55 52 53
45 57 59 57 58 57 56 56 55 63 74 84 76 79 94 94 86 100 102 101 104 98 91 89 88 83 78 75 71 67 62 65
35 49 61 61 61 66 65 63 60 60 66 75 83 80 81 94 88 95 100 102 100 106 109 111 111 103 92 87 84 80 67 64
31 45 57 61 60 61 66 67 63 62 63 67 72 81 83 81 86 96 111 109 113 108 111 113 107 105 101 96 98 92 74 71
21 37 47 56 55 59 67 68 64 65 69 69 70 79 82 85 95 98 103 111 118 120 121 116 120 115 110 98 89 92 90 86
16 27 38 50 59 61 67 70 71 71 68 69 76 71 73 82 97 101 102 107 100 110 108 116 120 106 97 92 87 89 76 72
16 16 33 42 51 60 65 72 79 74 71 74 75 79 83 89 89 90 90 90 86 86 88 92 91 93 81 94 92 80 77 76
30 23 27 36 45 56 62 68 72 74 73 76 81 86 89 86 85 85 86 87 84 85 87 89 89 86 85 80 77 80 70 79
37 32 30 32 42 49 55 60 65 72 73 74 87 90 89 84 86 85 85 86 87 84 80 80 78 72 77 68 64 64 66 72
49 41 36 35 39 49 49 55 63 66 72 78 74 73 77 83 83 81 78 83 81 78 78 76 75 77 86 87 81 77 76 75
59 55 41 36 36 47 54 56 53 63 67 67 68 68 70 70 69 69 72 71 64 67 67 66 68 68 74 85 84 79 81 70
62 60 54 40 37 35 45 44 53 61 64 62 61 66 66 60 59 58 56 56 56 58 61 65 68 69 69 59 50 57 59 62
Wind_Direction_500mb
207 201 203 210 210 218 218 210 199 190 182 183 188 188 175 172 178 170 181 188 195 193 189 190 183 182 189 191 185 187 184 183
202 196 202 194 198 201 217 214 196 190 181 186 186 183 185 183 179 183 192 197 195 197 194 197 193 190 191 195 189 197 189 190
201 196 199 199 193 200 203 210 205 197 195 189 188 188 185 188 190 194 198 202 198 200 199 200 202 199 203 205 200 203 200 206
202 197 198 198 195 201 199 203 205 206 197 196 187 191 192 192 191 205 207 208 205 206 207 204 207 207 212 212 212 210 212 221
207 200 199 199 197 193 197 200 201 200 203 204 203 201 195 198 196 204 211 213 212 211 213 214 216 214 218 214 223 229 222 230
206 206 201 197 195 194 192 201 204 209 205 203 202 200 201 203 204 207 209 215 220 218 217 219 219 216 225 221 231 235 233 234
208 207 200 198 196 195 193 198 201 206 204 205 204 198 200 202 199 210 217 218 221 220 220 221 222 225 227 232 235 242 246 249
201 201 201 198 198 197 195 196 200 204 208 211 205 209 205 205 210 210 214 216 217 216 217 222 226 226 230 235 240 244 246 252
202 203 203 203 201 205 205 199 198 201 207 208 206 209 210 210 211 214 216 216 219 222 226 228 232 236 236 237 242 248 253 256
212 206 206 204 204 209 212 206 201 202 203 205 210 208 210 214 214 215 218 218 219 223 228 228 233 237 240 242 247 252 255 254
220 210 205 206 207 209 216 210 208 205 205 206 207 209 213 214 215 219 220 223 223 224 230 229 230 233 239 245 251 254 250 251
233 207 207 204 204 206 215 214 208 208 210 209 210 211 213 214 219 223 227 226 226 231 234 232 232 235 241 247 249 252 251 250
277 210 199 199 203 206 211 214 213 214 213 212 215 215 215 217 222 225 227 229 231 233 234 234 237 240 243 243 245 249 243 244
321 246 213 205 206 208 210 215 220 217 214 218 219 220 220 225 228 229 229 230 231 234 235 237 238 239 239 244 248 249 246 245
302 270 242 231 217 215 213 218 219 217 217 218 221 224 230 232 233 232 234 236 235 238 240 241 242 241 245 245 249 250 241 252
304 284 261 244 235 224 219 218 219 218 218 220 228 233 232 231 232 235 235 236 239 240 239 239 241 238 241 237 238 242 249 255
300 303 275 253 249 234 226 223 223 220 220 226 226 227 230 232 233 234 236 240 240 239 239 238 239 240 248 251 251 260 265 271
300 301 302 274 269 268 250 243 223 222 224 223 223 225 226 226 229 230 232 234 235 236 235 236 239 240 248 254 260 264 266 263
305 297 294 285 290 273 265 236 228 225 225 224 223 224 225 221 222 224 224 225 227 232 235 238 242 248 252 261 254 249 253 259
Wind_Speed_850mb
23 20 21 30 29 34 41 35 36 34 54 69 70 73 88 80 73 73 66 67 73 59 49 51 46 38 40 37 31 31 28 28
26 23 22 30 30 36 44 47 47 46 53 75 72 68 95 97 89 88 58 70 69 64 49 56 49 38 38 41 32 33 30 32
33 29 27 33 34 39 42 50 54 57 60 68 71 75 92 97 94 96 63 65 66 66 52 57 56 39 43 45 38 34 28 37
41 38 34 33 37 41 46 55 58 59 66 78 77 73 88 88 108 83 73 64 64 60 67 54 56 51 51 48 40 34 31 33
45 44 40 38 39 41 45 56 62 61 62 79 84 89 86 88 97 96 65 61 68 61 65 63 60 55 54 42 43 41 38 36
52 51 44 39 39 43 46 54 59 63 75 81 76 84 89 85 91 95 72 70 73 77 70 67 62 55 53 49 50 49 44 45
49 45 43 42 41 43 46 51 60 68 78 82 80 88 89 88 95 98 86 77 77 83 76 71 64 59 61 61 56 54 54 52
49 54 54 50 51 50 50 54 58 68 77 83 88 85 97 88 94 102 99 92 85 83 78 74 73 64 63 62 59 55 52 53
45 57 59 57 58 57 56 56 55 63 74 84 76 79 94 94 86 100 102 101 104 98 91 89 88 83 78 75 71 67 62 65
35 49 61 61 61 66 65 63 60 60 66 75 83 80 81 94 88 95 100 102 100 106 109 111 111 103 92 87 84 80 67 64
31 45 57 61 60 61 66 67 63 62 63 67 72 81 83 81 86 96 111 109 113 108 111 113 107 105 101 96 98 92 74 71
21 37 47 56 55 59 67 68 64 65 69 69 70 79 82 85 95 98 103 111 118 120 121 116 120 115 110 98 89 92 90 86
16 27 38 50 59 61 67 70 71 71 68 69 76 71 73 82 97 101 102 107 100 110 108 116 120 106 97 92 87 89 76 72
16 16 33 42 51 60 65 72 79 74 71 74 75 79 83 89 89 90 90 90 86 86 88 92 91 93 81 94 92 80 77 76
30 23 27 36 45 56 62 68 72 74 73 76 81 86 89 86 85 85 86 87 84 85 87 89 89 86 85 80 77 80 70 79
37 32 30 32 42 49 55 60 65 72 73 74 87 90 89 84 86 85 85 86 87 84 80 80 78 72 77 68 64 64 66 72
49 41 36 35 39 49 49 55 63 66 72 78 74 73 77 83 83 81 78 83 81 78 78 76 75 77 86 87 81 77 76 75
59 55 41 36 36 47 54 56 53 63 67 67 68 68 70 70 69 69 72 71 64 67 67 66 68 68 74 85 84 79 81 70
62 60 54 40 37 35 45 44 53 61 64 62 61 66 66 60 59 58 56 56 56 58 61 65 68 69 69 59 50 57 59 62
Wind_Direction_850mb
207 201 203 210 210 218 218 210 199 190 182 183 188 188 175 172 178 170 181 188 195 193 189 190 183 182 189 191 185 187 184 183
202 196 202 194 198 201 217 214 196 190 181 186 186 183 185 183 179 183 192 197 195 197 194 197 193 190 191 195 189 197 189 190
201 196 199 199 193 200 203 210 205 197 195 189 188 188 185 188 190 194 198 202 198 200 199 200 202 199 203 205 200 203 200 206
202 197 198 198 195 201 199 203 205 206 197 196 187 191 192 192 191 205 207 208 205 206 207 204 207 207 212 212 212 210 212 221
207 200 199 199 197 193 197 200 201 200 203 204 203 201 195 198 196 204 211 213 212 211 213 214 216 214 218 214 223 229 222 230
206 206 201 197 195 194 192 201 204 209 205 203 202 200 201 203 204 207 209 215 220 218 217 219 219 216 225 221 231 235 233 234
208 207 200 198 196 195 193 198 201 206 204 205 204 198 200 202 199 210 217 218 221 220 220 221 222 225 227 232 235 242 246 249
201 201 201 198 198 197 195 196 200 204 208 211 205 209 205 205 210 210 214 216 217 216 217 222 226 226 230 235 240 244 246 252
202 203 203 203 201 205 205 199 198 201 207 208 206 209 210 210 211 214 216 216 219 222 226 228 232 236 236 237 242 248 253 256
212 206 206 204 204 209 212 206 201 202 203 205 210 208 210 214 214 215 218 218 219 223 228 228 233 237 240 242 247 252 255 254
220 210 205 206 207 209 216 210 208 205 205 206 207 209 213 214 215 219 220 223 223 224 230 229 230 233 239 245 251 254 250 251
233 207 207 204 204 206 215 214 208 208 210 209 210 211 213 214 219 223 227 226 226 231 234 232 232 235 241 247 249 252 251 250
277 210 199 199 203 206 211 214 213 214 213 212 215 215 215 217 222 225 227 229 231 233 234 234 237 240 243 243 245 249 243 244
321 246 213 205 206 208 210 215 220 217 214 218 219 220 220 225 228 229 229 230 231 234 235 237 238 239 239 244 248 249 246 245
302 270 242 231 217 215 213 218 219 217 217 218 221 224 230 232 233 232 234 236 235 238 240 241 242 241 245 245 249 250 241 252
304 284 261 244 235 224 219 218 219 218 218 220 228 233 232 231 232 235 235 236 239 240 239 239 241 238 241 237 238 242 249 255
300 303 275 253 249 234 226 223 223 220 220 226 226 227 230 232 233 234 236 240 240 239 239 238 239 240 248 251 251 260 265 271
300 301 302 274 269 268 250 243 223 222 224 223 223 225 226 226 229 230 232 234 235 236 235 236 239 240 248 254 260 264 266 263
305 297 294 285 290 273 265 236 228 225 225 224 223 224 225 221 222 224 224 225 227 232 235 238 242 248 252 261 254 249 253 259